User: anonymous   Login
Location: Fort Wayne
(41.1310°N, 85.1290°W)
Time: 23:20:37
(UTC-04:00)
Language:

COSMOS 2428 - Orbit

View from above orbital plane
View from above orbital plane
View from above satellite
View from above satellite

Ground track
Ground track

The orbit data is extracted from the following two-line orbital elements,

1 31792U 07029A   18147.84193022  .00000180  00000-0  12298-3 0  9994
2 31792  70.9644  49.1673 0007032 141.1606 297.7044 14.12522903562730
Epoch (UTC): 27 May 2018 20:12:22
Eccentricity: 0.0007032
inclination: 70.9644°
perigee height: 845 km
apogee height: 856 km
right ascension of ascending node: 49.1673°
argument of perigee: 141.1606°
revolutions per day: 14.12522903
mean anomaly at epoch: 297.7044°
orbit number at epoch: 56273

The dashed part of the orbit path shows where the satellite is in the earth's shadow,  

DLR